West Palm Beach, FL

10:39 PM EDT on October 14, 2019 (GMT -0400)
Palm Beach International

Weather History for KPBI - June, 2019

Change the Weather History Date:

Sunday, June 2, 2019

  Actual Average Record
Temperature  
Mean Temperature 85 °F 81 °F  
Max Temperature 93 °F 88 °F 95 °F (1998)
Min Temperature 77 °F 74 °F 62 °F (1984)
Degree Days  
Heating Degree Days 0 0  
Month to date heating degree days 0 0  
Since 1 June heating degree days 0 0  
Since 1 July heating degree days 144 233  
Cooling Degree Days 20 16  
Month to date cooling degree days 38 31  
Year to date cooling degree days 1439 1140  
Since 1 June cooling degree days 38 31  
Growing Degree Days 35 (Base 50)    
Moisture  
Dew Point 72 °F    
Average Humidity 68    
Maximum Humidity 88    
Minimum Humidity 47    
Precipitation  
Precipitation 0.09 in 0.26 in 3.68 in (2007)
Month to date precipitation 1.41 0.52  
Year to date precipitation 22.42 19.23  
Snow  
Snow 0.00 in - - ()
Month to date snowfall 0.0  
Since 1 June snowfall 0.0  
Since 1 July snowfall 0.0  
Snow Depth 0.00 in    
Sea Level Pressure  
Sea Level Pressure 29.93 in    
Wind  
Wind Speed 6 mph (South)    
Max Wind Speed 17 mph    
Max Gust Speed 21 mph    
Visibility 10 miles    
Events Rain , Thunderstorm    
T = Trace of Precipitation, MM = Missing Value Source: NWS Daily Summary

Daily Weather History Graph

Daily Weather History Graph

Search for Another Location

Airport or City:

Astronomy

Jun. 02, 2019 Rise Set
Actual Time 6:26 AM EDT 8:10 PM EDT
Civil Twilight 6:01 AM EDT 8:36 PM EDT
Nautical Twilight 5:29 AM EDT 9:07 PM EDT
Astronomical Twilight 4:57 AM EDT 9:40 PM EDT
Moon 5:55 AM EDT (6/2) 7:34 PM EDT (6/2)
Length of Visible Light 14h 35m
Length of Day
13h 43m
Waning Crescent, 1% of the Moon is Illuminated
Jun 2
Waning Crescent
Jun 3
New
Jun 10
First Quarter
Jun 17
Full
Jun 25
Last Quarter

Hourly Weather History & Observations

Time (EDT) Temp. Heat Index Dew Point Humidity Pressure Visibility Wind Dir Wind Speed Gust Speed Precip Events Conditions
12:53 AM 79.0 °F - 72.0 °F 79% 29.94 in 10.0 mi West 4.6 mph - N/A   Mostly Cloudy
1:53 AM 78.1 °F - 73.0 °F 84% 29.91 in 10.0 mi SW 3.5 mph - N/A   Mostly Cloudy
2:53 AM 78.1 °F - 73.0 °F 84% 29.90 in 10.0 mi Calm Calm - N/A   Mostly Cloudy
3:53 AM 78.1 °F - 72.0 °F 81% 29.89 in 10.0 mi SE 3.5 mph - N/A   Clear
4:53 AM 78.1 °F - 73.0 °F 84% 29.90 in 10.0 mi South 3.5 mph - N/A   Clear
5:53 AM 77.0 °F - 73.0 °F 88% 29.91 in 10.0 mi South 4.6 mph - N/A   Partly Cloudy
6:53 AM 77.0 °F - 71.1 °F 82% 29.92 in 10.0 mi South 3.5 mph - N/A   Partly Cloudy
7:53 AM 80.1 °F 84.2 °F 73.0 °F 79% 29.95 in 10.0 mi SW 6.9 mph - N/A   Partly Cloudy
8:53 AM 84.0 °F 91.2 °F 73.9 °F 72% 29.96 in 10.0 mi SSW 10.4 mph - N/A   Scattered Clouds
9:53 AM 86.0 °F 91.5 °F 71.1 °F 61% 29.96 in 10.0 mi SSW 10.4 mph - N/A   Scattered Clouds
10:53 AM 87.1 °F 92.8 °F 71.1 °F 59% 29.97 in 10.0 mi SSW 4.6 mph - N/A   Scattered Clouds
11:53 AM 90.0 °F 95.4 °F 70.0 °F 52% 29.96 in 10.0 mi WSW 6.9 mph - N/A   Scattered Clouds
12:53 PM 91.0 °F 95.2 °F 68.0 °F 47% 29.95 in 10.0 mi Variable 3.5 mph - N/A   Scattered Clouds
1:53 PM 91.9 °F 96.9 °F 69.1 °F 47% 29.93 in 10.0 mi SW 8.1 mph - N/A   Mostly Cloudy
2:53 PM 90.0 °F 96.9 °F 72.0 °F 55% 29.91 in 10.0 mi SE 13.8 mph - N/A   Mostly Cloudy
3:53 PM 88.0 °F 93.8 °F 71.1 °F 57% 29.90 in 10.0 mi East 15.0 mph - N/A   Mostly Cloudy
4:53 PM 88.0 °F 93.8 °F 71.1 °F 57% 29.90 in 10.0 mi ESE 12.7 mph - N/A   Mostly Cloudy
5:39 PM 86.0 °F 91.5 °F 71.1 °F 61% 29.88 in 10.0 mi SSE 11.5 mph - N/A Thunderstorm Mostly Cloudy
6:05 PM 84.0 °F 90.2 °F 73.0 °F 69% 29.91 in 10.0 mi SW 13.8 mph - 0.00 in Rain , Thunderstorm Light Thunderstorms and Rain
6:28 PM 81.0 °F 86.2 °F 73.9 °F 79% 29.91 in 10.0 mi SSE 8.1 mph - 0.08 in   Mostly Cloudy
6:53 PM 81.0 °F 86.7 °F 75.0 °F 82% 29.91 in 10.0 mi South 6.9 mph - 0.08 in   Mostly Cloudy
7:53 PM 82.9 °F 89.4 °F 73.9 °F 74% 29.92 in 10.0 mi South 4.6 mph - 0.01 in   Mostly Cloudy
8:53 PM 81.0 °F 85.8 °F 73.0 °F 77% 29.93 in 10.0 mi South 5.8 mph - N/A   Mostly Cloudy
9:53 PM 81.0 °F 86.2 °F 73.9 °F 79% 29.94 in 10.0 mi South 4.6 mph - N/A   Mostly Cloudy
10:53 PM 82.0 °F 86.7 °F 72.0 °F 71% 29.96 in 10.0 mi SSE 5.8 mph - N/A   Scattered Clouds
11:53 PM 82.0 °F 87.9 °F 73.9 °F 76% 29.96 in 10.0 mi SSE 6.9 mph - N/A   Scattered Clouds